This is the latest recevied weather packets stored in our database for station/object IU1FIL-23. If no packets are shown the sender has not sent any weather packets the latest 10 day(s).
| Time | Temp. | Humidity | Pressure | Rain* | Wind** | Luminosity | Snow |
|---|---|---|---|---|---|---|---|
| 1777617376 | 14.44° C | 50% | 1026.2 hPa | - | - | - | - |
| 1777616772 | 14.44° C | 50% | 1026.2 hPa | - | - | - | - |
| 1777616168 | 13.89° C | 50% | 1026.1 hPa | - | - | - | - |
| 1777615564 | 14.44° C | 49% | 1026 hPa | - | - | - | - |
| 1777614960 | 13.89° C | 50% | 1025.9 hPa | - | - | - | - |
| 1777614356 | 13.89° C | 51% | 1025.9 hPa | - | - | - | - |
| 1777613752 | 13.33° C | 51% | 1025.7 hPa | - | - | - | - |
| 1777613138 | 12.78° C | 51% | 1025.6 hPa | - | - | - | - |
| 1777612533 | 12.78° C | 52% | 1025.5 hPa | - | - | - | - |
| 1777611929 | 11.67° C | 54% | 1025.5 hPa | - | - | - | - |
| 1777611325 | 10.56° C | 57% | 1025.3 hPa | - | - | - | - |
| 1777610721 | 8.33° C | 65% | 1025.3 hPa | - | - | - | - |
| 1777610117 | 7.78° C | 65% | 1025.2 hPa | - | - | - | - |
| 1777609513 | 7.78° C | 65% | 1025.1 hPa | - | - | - | - |
| 1777608909 | 7.78° C | 65% | 1025.1 hPa | - | - | - | - |
| 1777608305 | 7.78° C | 65% | 1025 hPa | - | - | - | - |
| 1777607701 | 7.78° C | 65% | 1025.1 hPa | - | - | - | - |
| 1777607096 | 7.78° C | 65% | 1024.9 hPa | - | - | - | - |
| 1777606492 | 7.78° C | 64% | 1024.9 hPa | - | - | - | - |
| 1777605888 | 7.78° C | 64% | 1024.8 hPa | - | - | - | - |
| 1777605284 | 8.33° C | 64% | 1024.8 hPa | - | - | - | - |
| 1777604680 | 8.33° C | 63% | 1024.8 hPa | - | - | - | - |
| 1777604076 | 8.33° C | 63% | 1024.7 hPa | - | - | - | - |
| 1777603472 | 8.33° C | 62% | 1024.6 hPa | - | - | - | - |
| 1777602867 | 8.33° C | 62% | 1024.7 hPa | - | - | - | - |
* Rain since midnight (hover to see other rain measurements)
** Current wind speed in m/s (hover to see current wind gust speed)